Time,TemperatureF,DewpointF,PressureIn,WindDirection,WindDirectionDegrees,WindSpeedMPH,WindSpeedGustMPH,Humidity,HourlyPrecipIn,Conditions,Clouds,dailyrainin,SolarRadiationWatts/m^2,SoftwareType,DateUTC
2014-09-20 00:04:00,37.0,35.0,-100.00,WSW,243,1.0,2.0,94,0.00,,,0.00,0.000000,,2014-09-20 04:04:00,
2014-09-20 00:43:00,36.0,34.0,-100.00,SSW,211,1.0,3.0,94,0.00,,,0.00,0.000000,,2014-09-20 04:43:00,
2014-09-20 00:53:00,36.0,34.0,-100.00,SSW,211,1.0,3.0,94,0.00,,,0.00,0.000000,,2014-09-20 04:53:00,
2014-09-20 01:03:00,36.0,34.0,-100.00,SSW,211,1.0,3.0,94,0.00,,,0.00,0.000000,,2014-09-20 05:03:00,
2014-09-20 01:42:00,34.0,32.0,-100.00,WNW,300,1.0,3.0,94,0.00,,,0.00,0.000000,,2014-09-20 05:42:00,
2014-09-20 01:53:00,34.0,32.0,-100.00,WNW,300,1.0,3.0,94,0.00,,,0.00,0.000000,,2014-09-20 05:53:00,
2014-09-20 02:02:00,34.0,32.0,-100.00,WNW,300,1.0,3.0,94,0.00,,,0.00,0.000000,,2014-09-20 06:02:00,
2014-09-20 02:43:00,32.0,31.0,-100.00,West,270,1.0,3.0,96,0.00,,,0.00,0.000000,,2014-09-20 06:43:00,
2014-09-20 02:53:00,32.0,31.0,-100.00,West,270,1.0,3.0,96,0.00,,,0.00,0.000000,,2014-09-20 06:53:00,
2014-09-20 03:02:00,32.0,31.0,-100.00,West,270,1.0,3.0,96,0.00,,,0.00,0.000000,,2014-09-20 07:02:00,
2014-09-20 03:42:00,31.0,30.0,-100.00,NE,39,1.0,3.0,96,0.00,,,0.00,0.000000,,2014-09-20 07:42:00,
2014-09-20 03:53:00,31.0,30.0,-100.00,NE,39,1.0,3.0,96,0.00,,,0.00,0.000000,,2014-09-20 07:53:00,
2014-09-20 04:02:00,31.0,30.0,-100.00,NE,39,1.0,3.0,96,0.00,,,0.00,0.000000,,2014-09-20 08:02:00,
2014-09-20 04:42:00,30.0,30.0,-100.00,NE,40,1.0,4.0,100,0.00,,,0.00,0.000000,,2014-09-20 08:42:00,
2014-09-20 04:52:00,30.0,30.0,-100.00,NE,40,1.0,4.0,100,0.00,,,0.00,0.000000,,2014-09-20 08:52:00,
2014-09-20 05:02:00,30.0,30.0,-100.00,NE,40,1.0,4.0,100,0.00,,,0.00,0.000000,,2014-09-20 09:02:00,
2014-09-20 05:44:00,32.0,32.0,-100.00,SW,221,2.0,4.0,100,0.00,,,0.00,0.000000,,2014-09-20 09:44:00,
2014-09-20 05:54:00,32.0,32.0,-100.00,SW,221,2.0,4.0,100,0.00,,,0.00,0.000000,,2014-09-20 09:54:00,
2014-09-20 06:04:00,32.0,32.0,-100.00,SW,221,2.0,4.0,100,0.00,,,0.00,0.000000,,2014-09-20 10:04:00,
2014-09-20 06:43:00,38.0,38.0,-100.00,SSW,207,1.0,6.0,100,0.00,,,0.00,0.000000,,2014-09-20 10:43:00,
2014-09-20 06:54:00,38.0,38.0,-100.00,SSW,207,1.0,6.0,100,0.00,,,0.00,0.000000,,2014-09-20 10:54:00,
2014-09-20 07:03:00,38.0,38.0,-100.00,SSW,207,1.0,6.0,100,0.00,,,0.00,0.000000,,2014-09-20 11:03:00,
2014-09-20 07:43:00,41.0,38.0,-100.00,South,185,1.0,5.0,88,0.00,,,0.00,3.000000,,2014-09-20 11:43:00,
2014-09-20 07:52:00,41.0,38.0,-100.00,South,185,1.0,5.0,88,0.00,,,0.00,3.000000,,2014-09-20 11:52:00,
2014-09-20 08:03:00,41.0,38.0,-100.00,South,185,1.0,5.0,88,0.00,,,0.00,3.000000,,2014-09-20 12:03:00,
2014-09-20 08:43:00,46.0,39.0,-100.00,East,101,2.0,6.0,76,0.00,,,0.00,17.000000,,2014-09-20 12:43:00,
2014-09-20 08:52:00,46.0,39.0,-100.00,East,101,2.0,6.0,76,0.00,,,0.00,17.000000,,2014-09-20 12:52:00,
2014-09-20 09:02:00,46.0,39.0,-100.00,East,101,2.0,6.0,76,0.00,,,0.00,17.000000,,2014-09-20 13:02:00,
2014-09-20 09:42:00,47.0,40.0,-100.00,South,187,3.0,6.0,76,0.00,,,0.00,20.000000,,2014-09-20 13:42:00,
2014-09-20 09:53:00,47.0,40.0,-100.00,South,187,3.0,6.0,76,0.00,,,0.00,20.000000,,2014-09-20 13:53:00,
2014-09-20 10:03:00,47.0,40.0,-100.00,South,187,3.0,6.0,76,0.00,,,0.00,20.000000,,2014-09-20 14:03:00,
2014-09-20 10:43:00,47.0,41.0,-100.00,SE,140,2.0,6.0,78,0.00,,,0.00,36.000000,,2014-09-20 14:43:00,
2014-09-20 10:52:00,47.0,41.0,-100.00,SE,140,2.0,6.0,78,0.00,,,0.00,36.000000,,2014-09-20 14:52:00,
2014-09-20 11:02:00,47.0,41.0,-100.00,SE,140,2.0,6.0,78,0.00,,,0.00,36.000000,,2014-09-20 15:02:00,
2014-09-20 11:44:00,49.0,42.0,-100.00,NE,47,2.0,5.0,76,0.00,,,0.00,50.000000,,2014-09-20 15:44:00,
2014-09-20 11:54:00,49.0,42.0,-100.00,NE,47,2.0,5.0,76,0.00,,,0.00,50.000000,,2014-09-20 15:54:00,
2014-09-20 12:04:00,49.0,42.0,-100.00,NE,47,2.0,5.0,76,0.00,,,0.00,50.000000,,2014-09-20 16:04:00,
2014-09-20 12:44:00,51.0,43.0,-100.00,SSW,206,4.0,9.0,75,0.00,,,0.00,78.000000,,2014-09-20 16:44:00,
2014-09-20 12:54:00,51.0,43.0,-100.00,SSW,206,4.0,9.0,75,0.00,,,0.00,78.000000,,2014-09-20 16:54:00,
2014-09-20 13:03:00,51.0,43.0,-100.00,SSW,206,4.0,9.0,75,0.00,,,0.00,78.000000,,2014-09-20 17:03:00,
2014-09-20 13:44:00,54.0,45.0,-100.00,SSW,208,6.0,14.0,71,0.00,,,0.00,208.000000,,2014-09-20 17:44:00,
2014-09-20 13:53:00,54.0,45.0,-100.00,SSW,208,6.0,14.0,71,0.00,,,0.00,208.000000,,2014-09-20 17:53:00,
2014-09-20 14:03:00,54.0,45.0,-100.00,SSW,208,6.0,14.0,71,0.00,,,0.00,208.000000,,2014-09-20 18:03:00,